CW6617 Weather Reports


Display with metric or nautical units.
time (UTC)temp
F
wind
direction
speed
MPH
gust
MPH
rain 1hr
in
rain 24hr
in
rain mn
in
humidity
%
barometer
mb
20211028104706 57 168 10.0 14.0 0.00 0.00 0.00 88 1008.9
20211028104205 57 171 9.0 16.0 0.00 0.00 0.00 88 1008.8
20211028103706 57 182 10.0 13.0 0.00 0.00 0.00 89 1008.9
20211028103205 57 174 11.0 15.0 0.00 0.00 0.00 89 1009.0
20211028101706 57 160 9.0 14.0 0.00 0.00 0.00 89 1009.2
20211028101206 57 174 8.0 13.0 0.00 0.00 0.00 89 1009.2
20211028100705 57 162 7.0 13.0 0.00 0.00 0.00 89 1009.2
20211028100205 57 176 9.0 15.0 0.00 0.00 0.00 89 1009.3
20211028094705 57 164 9.0 14.0 0.00 0.00 0.00 88 1009.3
20211028094205 57 173 9.0 13.0 0.00 0.00 0.00 88 1009.3
20211028093705 57 172 10.0 14.0 0.00 0.00 0.00 88 1009.4
20211028093205 57 171 9.0 21.0 0.00 0.00 0.00 88 1009.4
20211028091706 57 169 10.0 20.0 0.00 0.00 0.00 89 1009.4
20211028091205 56 171 12.0 16.0 0.00 0.00 0.00 90 1009.5
20211028090706 56 161 10.0 16.0 0.00 0.00 0.00 90 1009.5
20211028090205 56 169 11.0 20.0 0.00 0.00 0.00 90 1009.6
20211028084706 56 162 9.0 15.0 0.00 0.00 0.00 91 1009.8
20211028084205 56 175 8.0 13.0 0.00 0.00 0.00 91 1009.7
20211028083705 55 169 8.0 13.0 0.00 0.00 0.00 91 1009.9
20211028083205 55 163 10.0 16.0 0.00 0.00 0.00 91 1009.9
20211028081706 55 167 10.0 13.0 0.00 0.00 0.00 92 1009.9
20211028081206 55 170 8.0 17.0 0.00 0.00 0.00 92 1010.0
20211028080705 55 168 10.0 14.0 0.00 0.00 0.00 92 1010.1
20211028080205 55 175 9.0 18.0 0.00 0.00 0.00 92 1010.1
20211028074705 54 170 9.0 13.0 0.00 0.00 0.00 92 1010.1
20211028074205 54 167 9.0 13.0 0.00 0.00 0.00 92 1010.1
20211028073705 54 167 7.0 13.0 0.00 0.00 0.00 92 1010.0
20211028073206 54 169 6.0 13.0 0.00 0.00 0.00 92 1010.2
20211028071705 54 178 6.0 13.0 0.00 0.00 0.00 92 1010.4
20211028071206 54 166 6.0 14.0 0.00 0.00 0.00 92 1010.4
20211028070706 54 159 6.0 13.0 0.00 0.00 0.00 92 1010.4
20211028070206 54 173 9.0 12.0 0.00 0.00 0.00 92 1010.4
20211028064706 54 168 6.0 10.0 0.00 0.00 0.00 91 1010.4
20211028064206 54 168 3.0 10.0 0.00 0.00 0.00 91 1010.4
20211028063705 54 175 6.0 10.0 0.00 0.00 0.00 91 1010.4
20211028063206 54 157 6.0 13.0 0.00 0.00 0.00 91 1010.5
20211028061706 54 165 8.0 15.0 0.00 0.00 0.00 91 1010.7
20211028061205 54 165 6.0 10.0 0.00 0.00 0.00 91 1010.7
20211028060706 54 170 6.0 12.0 0.00 0.00 0.00 91 1010.8
20211028060205 54 167 6.0 10.0 0.00 0.00 0.00 91 1010.9
20211028054705 55 164 5.0 8.0 0.00 0.00 0.00 91 1011.0
20211028054206 55 158 5.0 9.0 0.00 0.00 0.00 91 1011.1
20211028053705 55 174 6.0 15.0 0.00 0.00 0.00 91 1011.2
20211028053206 55 175 4.0 12.0 0.00 0.00 0.00 91 1011.3
20211028051706 55 166 8.0 15.0 0.00 0.00 0.00 91 1011.4
20211028051205 55 165 6.0 8.0 0.00 0.00 0.00 91 1011.4
20211028050705 55 171 6.0 12.0 0.00 0.00 0.00 91 1011.5
20211028050206 55 167 6.0 17.0 0.00 0.00 0.00 91 1011.5
20211028044706 55 170 6.0 13.0 0.00 0.00 0.00 90 1011.4
20211028044206 55 169 7.0 13.0 0.00 0.00 0.00 90 1011.4
20211028043705 55 164 9.0 13.0 0.00 0.00 0.00 90 1011.5
20211028043206 55 168 9.0 13.0 0.00 0.00 0.00 90 1011.6
20211028041706 55 192 6.0 16.0 0.00 0.00 0.00 90 1011.7
20211028041206 55 165 6.0 13.0 0.00 0.00 0.00 90 1011.6
20211028040705 55 164 8.0 13.0 0.00 0.00 0.00 90 1011.6
20211028040206 55 172 7.0 13.0 0.00 0.00 0.00 90 1011.7
20211028034705 55 168 7.0 12.0 0.00 0.00 0.00 90 1011.7
20211028034206 55 182 7.0 13.0 0.00 0.00 0.00 90 1011.7
20211028033705 55 168 7.0 13.0 0.00 0.00 0.00 90 1011.6
20211028033206 55 175 8.0 15.0 0.00 0.00 0.00 90 1011.7
20211028031706 55 188 6.0 12.0 0.00 0.00 0.00 90 1012.1
20211028031206 55 170 6.0 10.0 0.00 0.00 0.00 90 1012.2
20211028030705 55 190 7.0 13.0 0.00 0.00 0.00 90 1012.2
20211028030206 55 181 6.0 13.0 0.00 0.00 0.00 90 1012.3
20211028024706 55 166 10.0 14.0 0.00 0.00 0.00 90 1012.4
20211028024205 55 173 10.0 18.0 0.00 0.00 0.00 90 1012.4
20211028023705 55 164 9.0 16.0 0.00 0.00 0.00 90 1012.5
20211028023205 55 170 8.0 17.0 0.00 0.00 0.00 90 1012.4
20211028021706 56 166 9.0 15.0 0.00 0.00 0.00 89 1012.6
20211028021205 56 172 8.0 13.0 0.00 0.00 0.00 89 1012.7
20211028020705 56 171 6.0 12.0 0.00 0.00 0.00 89 1012.7
20211028020206 56 176 6.0 17.0 0.00 0.00 0.00 89 1012.8
20211028014705 56 172 9.0 15.0 0.00 0.00 0.00 88 1012.9
20211028014206 57 169 7.0 13.0 0.00 0.00 0.00 88 1012.9
20211028013706 57 192 7.0 15.0 0.00 0.00 0.00 88 1012.9
20211028013206 57 174 7.0 17.0 0.00 0.00 0.00 89 1013.1
20211028011705 57 171 7.0 14.0 0.00 0.00 0.00 89 1013.1
20211028011205 57 169 9.0 13.0 0.00 0.00 0.00 89 1013.2
20211028010705 57 177 11.0 14.0 0.00 0.00 0.00 89 1013.2
20211028010205 57 169 9.0 16.0 0.00 0.00 0.00 89 1013.3
20211028004705 57 161 9.0 13.0 0.00 0.00 0.00 89 1013.4
20211028004206 57 180 10.0 22.0 0.00 0.00 0.00 89 1013.4
20211028003706 57 166 10.0 16.0 0.00 0.00 0.00 89 1013.4
20211028003206 57 166 9.0 15.0 0.00 0.00 0.00 89 1013.5
20211028001706 57 182 8.0 10.0 0.00 0.00 0.00 90 1013.8
20211028001206 57 173 9.0 13.0 0.00 0.00 0.00 90 1013.8
20211028000705 57 175 8.0 15.0 0.00 0.00 0.00 90 1013.9
20211028000205 57 170 11.0 16.0 0.00 0.00 0.00 89 1013.9
20211027234705 57 167 10.0 14.0 0.00 0.00 0.00 89 1014.1
20211027234205 57 169 9.0 14.0 0.00 0.00 0.00 89 1014.1
20211027233705 57 177 6.0 12.0 0.00 0.00 0.00 89 1014.2
20211027233206 57 172 9.0 13.0 0.00 0.00 0.00 89 1014.2
20211027231706 57 181 5.0 10.0 0.00 0.00 0.00 89 1014.3
20211027231205 57 182 6.0 12.0 0.00 0.00 0.00 89 1014.4
20211027230705 57 168 6.0 12.0 0.00 0.00 0.00 89 1014.4
20211027230206 57 155 7.0 14.0 0.00 0.00 0.00 89 1014.5
20211027224705 57 199 5.0 10.0 0.00 0.00 0.00 89 1014.7
20211027224205 57 187 10.0 13.0 0.00 0.00 0.00 89 1014.9
20211027223705 57 187 8.0 13.0 0.00 0.00 0.00 89 1015.0
20211027223205 57 186 8.0 17.0 0.00 0.00 0.00 89 1015.0
20211027221706 58 172 9.0 14.0 0.00 0.00 0.00 89 1015.4
20211027221206 58 166 7.0 14.0 0.00 0.00 0.00 89 1015.5
20211027220706 58 166 9.0 13.0 0.00 0.00 0.00 89 1015.5
20211027220206 58 191 9.0 15.0 0.00 0.00 0.00 88 1015.6
20211027214706 58 171 9.0 12.0 0.00 0.00 0.00 88 1015.6
20211027214206 58 168 11.0 15.0 0.00 0.00 0.00 88 1015.6
20211027213705 58 164 9.0 15.0 0.00 0.00 0.00 88 1015.7
20211027213205 58 179 9.0 18.0 0.00 0.00 0.00 88 1015.7
20211027211705 58 171 7.0 13.0 0.00 0.00 0.00 88 1015.8
20211027211205 58 175 9.0 18.0 0.00 0.00 0.00 88 1015.9
20211027210705 58 182 7.0 12.0 0.00 0.00 0.00 88 1016.0
20211027210206 58 169 8.0 15.0 0.00 0.00 0.00 88 1016.0
20211027204705 58 168 7.0 12.0 0.00 0.00 0.00 88 1016.1
20211027204205 58 191 9.0 14.0 0.00 0.00 0.00 88 1016.1
20211027203705 58 178 7.0 13.0 0.00 0.00 0.00 88 1016.2
20211027203205 58 167 9.0 15.0 0.00 0.00 0.00 88 1016.2
20211027201706 58 184 10.0 16.0 0.00 0.00 0.00 88 1016.3
20211027201205 58 195 7.0 16.0 0.00 0.00 0.00 88 1016.5
20211027200705 58 175 8.0 13.0 0.00 0.00 0.00 87 1016.3
20211027200210 58 175 10.0 14.0 0.00 0.00 0.00 87 1016.3
20211027194706 58 167 7.0 13.0 0.00 0.00 0.00 87 1016.5
20211027194205 58 162 12.0 17.0 0.00 0.00 0.00 86 1016.6
20211027193706 58 182 9.0 13.0 0.00 0.00 0.00 86 1016.6
20211027193205 58 175 10.0 18.0 0.00 0.00 0.00 86 1016.5
20211027191705 58 171 9.0 15.0 0.00 0.00 0.00 86 1016.7
20211027191206 58 164 9.0 17.0 0.00 0.00 0.00 86 1016.7
20211027190705 58 167 13.0 18.0 0.00 0.00 0.00 86 1016.7
20211027190205 58 175 10.0 14.0 0.00 0.00 0.00 86 1016.7
20211027184706 58 179 9.0 17.0 0.00 0.00 0.00 85 1016.8
20211027184205 58 192 7.0 13.0 0.00 0.00 0.00 85 1016.8
20211027183705 58 170 9.0 17.0 0.00 0.00 0.00 84 1016.8
20211027183206 58 175 10.0 21.0 0.00 0.00 0.00 85 1016.8
20211027181706 58 178 9.0 13.0 0.00 0.00 0.00 85 1016.8
20211027181205 58 173 9.0 13.0 0.00 0.00 0.00 85 1016.8
20211027180706 58 171 9.0 13.0 0.00 0.00 0.00 85 1016.8
20211027180206 58 173 7.0 17.0 0.00 0.00 0.00 85 1016.8
20211027174705 58 170 11.0 13.0 0.00 0.00 0.00 85 1016.8
20211027174205 58 185 7.0 12.0 0.00 0.00 0.00 85 1016.8
20211027173706 58 181 8.0 20.0 0.00 0.00 0.00 85 1016.8
20211027173205 58 178 6.0 13.0 0.00 0.00 0.00 85 1016.7
20211027171705 58 169 9.0 14.0 0.00 0.00 0.00 85 1016.7
20211027171205 58 165 9.0 13.0 0.00 0.00 0.00 84 1016.7
20211027170705 58 185 9.0 16.0 0.00 0.00 0.00 84 1016.7
20211027170205 58 177 7.0 15.0 0.00 0.00 0.00 84 1016.8
20211027164705 58 183 7.0 12.0 0.00 0.00 0.00 82 1016.9
20211027164206 58 188 8.0 13.0 0.00 0.00 0.00 82 1017.0
20211027163705 59 168 9.0 16.0 0.00 0.00 0.00 82 1017.0
20211027163206 59 190 10.0 20.0 0.00 0.00 0.00 82 1017.1
20211027161706 59 179 10.0 14.0 0.00 0.00 0.00 81 1017.1
20211027161205 59 188 11.0 15.0 0.00 0.00 0.00 81 1017.1
20211027160705 59 191 7.0 13.0 0.00 0.00 0.00 81 1017.1
20211027160206 60 184 10.0 15.0 0.00 0.00 0.00 81 1017.1
20211027154706 60 172 10.0 15.0 0.00 0.00 0.00 80 1017.3
20211027154205 60 184 10.0 22.0 0.00 0.00 0.00 80 1017.2
20211027153706 60 186 8.0 22.0 0.00 0.00 0.00 80 1017.2
20211027153206 60 186 7.0 15.0 0.00 0.00 0.00 81 1017.2
20211027151706 61 193 10.0 14.0 0.00 0.00 0.00 80 1017.3
20211027151205 61 184 8.0 14.0 0.00 0.00 0.00 81 1017.3
20211027150706 61 188 11.0 17.0 0.00 0.00 0.00 80 1017.3
20211027150205 61 175 7.0 21.0 0.00 0.00 0.00 80 1017.3
20211027144706 61 182 10.0 16.0 0.00 0.00 0.00 80 1017.3
20211027144206 61 171 10.0 15.0 0.00 0.00 0.00 80 1017.3
20211027143705 61 178 9.0 16.0 0.00 0.00 0.00 78 1017.3
20211027143206 61 179 13.0 21.0 0.00 0.00 0.00 78 1017.4
20211027141706 62 190 14.0 23.0 0.00 0.00 0.00 76 1017.5
20211027141206 61 182 13.0 25.0 0.00 0.00 0.00 76 1017.5
20211027140706 61 201 6.0 17.0 0.00 0.00 0.00 77 1017.6
20211027140206 61 190 9.0 22.0 0.00 0.00 0.00 76 1017.6
20211027134706 61 190 12.0 21.0 0.00 0.00 0.00 76 1017.6
20211027134206 61 188 7.0 14.0 0.00 0.00 0.00 76 1017.7
20211027133706 61 184 9.0 14.0 0.00 0.00 0.00 76 1017.7
20211027133205 61 189 9.0 24.0 0.00 0.00 0.00 76 1017.8
20211027131705 61 184 13.0 29.0 0.00 0.00 0.00 77 1018.0
20211027131206 61 194 9.0 15.0 0.00 0.00 0.00 79 1018.0
20211027130706 61 193 9.0 20.0 0.00 0.00 0.00 79 1018.2
20211027130205 61 190 8.0 22.0 0.00 0.00 0.00 79 1018.2
20211027124705 61 175 10.0 18.0 0.00 0.00 0.00 81 1018.4
20211027124206 60 177 12.0 21.0 0.00 0.00 0.00 82 1018.3
20211027123705 60 190 12.0 17.0 0.00 0.00 0.00 82 1018.4
20211027123206 60 185 13.0 24.0 0.00 0.00 0.00 82 1018.3
20211027121705 60 201 9.0 16.0 0.00 0.00 0.00 83 1018.5
20211027121206 60 179 10.0 20.0 0.00 0.00 0.00 84 1018.6
20211027120706 60 183 12.0 17.0 0.00 0.00 0.00 84 1018.8
20211027120206 60 190 11.0 21.0 0.00 0.00 0.00 85 1018.7
20211027114706 60 190 13.0 18.0 0.00 0.00 0.00 84 1018.7
20211027114205 60 194 10.0 14.0 0.00 0.00 0.00 84 1018.8
20211027113706 60 190 10.0 14.0 0.00 0.00 0.00 84 1018.7
20211027113206 60 192 9.0 16.0 0.00 0.00 0.00 84 1018.7
20211027111706 60 191 12.0 18.0 0.00 0.00 0.00 83 1018.9
20211027111206 60 186 7.0 14.0 0.00 0.00 0.00 83 1018.8
20211027110705 60 190 10.0 18.0 0.00 0.00 0.00 83 1018.9
20211027110205 60 181 12.0 22.0 0.00 0.00 0.00 84 1018.9